Regional Weather Roundup
Issued by NWS Glasgow, MT

Home | Current Version | Previous Version | Text Only | Print | Product List | Glossary On
Versions: 1 2 3 4 5 6 7 8 9 10 11 12 13 14 15 16 17 18 19 20 21 22 23 24 25 26 27 28 29 30 31 32 33 34 35 36 37 38 39 40 41 42 43 44 45 46 47 48 49 50
000
ASUS45 KGGW 282115
RWRGGW
HOURLY WEATHER ROUNDUP FOR NORTHEAST MONTANA
NATIONAL WEATHER SERVICE GLASGOW MONTANA
200 PM MST SAT FEB 28 2015

NOTE: "FAIR" INDICATES FEW OR NO CLOUDS BELOW 12,000 FEET WITH NO
SIGNIFICANT WEATHER AND/OR OBSTRUCTIONS TO VISISBILITY.

NORTHEAST MONTANA


CITY           SKY/WX    TMP DP  RH WIND       PRES   REMARKS
GLASGOW        SUNNY     22   1  40 W12G17    30.15F
PLENTYWOOD       N/A     15   4  61 NW12        N/A
WOLF POINT     SUNNY     22   4  46 W15       30.17F
JORDAN           N/A     21   7  54 NW14      30.15F
WINNETT          N/A     24  11  57 W9G17       N/A
SIDNEY         CLOUDY    18   1  49 NW14G24   30.19F
GLENDIVE       CLOUDY    18   7  62 NW15G23   30.15S
MALTA            N/A     24  10  55 W13         N/A
SCOBEY           N/A     16  -2  45 W16G23    30.08F

FORT PECK REPORTS


CITY           SKY/WX    TMP DP  RH WIND       PRES   REMARKS
FORT PECK        N/A     22   8  55 W13         N/A
THE PINES        N/A     24   6  46 W8          N/A

SOUTHEAST MONTANA


CITY           SKY/WX    TMP DP  RH WIND       PRES   REMARKS
BILLINGS       PTSUNNY   27   8  44 S10G17    30.09F
MILES CITY     CLOUDY    22   8  55 NW12      30.15F
BAKER          CLOUDY    18   6  59 NW18      30.11F
LIVINGSTON     SUNNY     22   9  57 CALM      30.02F

CENTRAL MONTANA


CITY           SKY/WX    TMP DP  RH WIND       PRES   REMARKS
HAVRE          PTSUNNY   22   7  52 SW13      30.16F
LEWISTOWN      FLURRIES  16   8  71 NW8       30.09F
GREAT FALLS    PTSUNNY   21   8  57 W9        30.14F
CUT BANK       SUNNY     21   9  59 NW14      30.12S
HELENA         MOSUNNY   25   6  44 NW8       30.10F
BUTTE          CLOUDY    19   7  59 W10       29.97F
BOZEMAN        MOSUNNY   21   7  54 CALM      30.04F

WESTERN MONTANA


CITY           SKY/WX    TMP DP  RH WIND       PRES   REMARKS
MISSOULA       SUNNY     31   5  33 S7        30.10F
KALISPELL      NOT AVBL

NORTH DAKOTA


CITY           SKY/WX    TMP DP  RH WIND       PRES   REMARKS
WILLISTON      LGT SNOW  14   6  70 NW9       30.16F
DICKINSON      CLOUDY    19   3  49 W21G31    30.07F
MINOT          PTSUNNY   12   2  64 W20       30.11S WCI  -6
BISMARCK       SUNNY     20   5  52 NW13G21   30.14S

SOUTHERN SASKATCHEWAN


CITY           SKY/WX    TMP DP  RH WIND       PRES   REMARKS
REGINA         PTSUNNY   10   5  79 W15       30.10F WCI  -6
ESTEVAN        PTSUNNY    9   1  72 NW16G22   30.13S WCI  -9
SWIFT CURRENT  MOSUNNY   18   9  68 W18G25    30.05F



USA.gov is the U.S. government's official web portal to all federal, state and local government web resources and services.